Погода в Старых Ятчах

Россия / Удмуртская Республика     56°00′03″N   51°39′25″E
темп.,
°C
ветер,
м/с
пор.,
м/с
влажн.,
%
обл.,
%
осадки,
мм/ч
давл.,
гПа
погр.,
м
16 мая, вс
вс1601:00+18ю376163 0.0 1018107
04:00+17ю38609 0.0 1018126
07:00+20ю3115667 0.0 1018296
10:00+26ююз610396 0.0 1018643
13:00+29ююз710325 0.0 10171437
16:00+30юз6103087 0.0 10173166
19:00+25зюз374729 0.0 1016239
22:00+20ююз3954100 0.0 1016151
17 мая, пн
пн1701:00+18ююз33595 0.0 101740
04:00+16зюз22617 0.0 101714
07:00+19ююз235646 0.0 1018122
10:00+25юз344475 0.0 1018619
13:00+28зюз463761 0.0 10181327
16:00+28зюз4637100 0.0 10171522
19:00+25з24545 0.0 101772
22:00+20зсз22685 0.0 101812
18 мая, вт
вт1801:00+17ссв117688 0.3 101911
04:00+16ссв227524 0.7 101922
07:00+19св2469100 0.0 1020163
10:00+23св3353100 0.0 1020667
13:00+25св334598 0.0 10201145
16:00+26св3341100 0.0 10201217
19:00+22всв3656100 0.0 1020127
22:00+17в3861100 0.0 1021149
19 мая, ср
ср1901:00+15в397194 0.0 1021183
04:00+13в41178100 0.0 1022250
07:00+15в597114 0.0 1022317
10:00+19в575138 0.0 1021728
13:00+23вюв673913 0.0 10201173
16:00+24вюв57385 0.0 10201386
19:00+22в48552 0.0 1018252
22:00+17вюв411682 0.0 1019210
20 мая, чт
чт2001:00+16вюв411702 0.0 1018204
04:00+14юв310681 0.0 1019176
07:00+17юв512604 0.0 1018399
10:00+22ююв69465 0.0 1018905
13:00+25ююв79430 0.0 10171627
16:00+25ю794786 0.0 10172164
19:00+18юз256995 0.0 1018347
22:00+15ю347814 0.0 101878